| time (UTC) | temp F | wind direction | speed knots | gust knots | rain 1hr in | rain 24hr in | rain mn in | humidity % | barometer mb |
| 20260506033027 | 51 | 211 | 0.0 | 1.7 | 0.00 | 0.87 | 0.00 | 92 | 1006.3 |
| 20260506032226 | 52 | 203 | 1.7 | 2.6 | 0.00 | 0.87 | 0.00 | 92 | 1007.6 |
| 20260506031538 | 51 | 211 | 0.9 | 2.6 | 0.00 | 0.87 | 0.00 | 92 | 1006.2 |
| 20260506030021 | 51 | 209 | 0.9 | 2.6 | 0.00 | 0.87 | 0.00 | 92 | 1006.5 |
| 20260506024526 | 51 | 209 | 0.0 | 0.9 | 0.00 | 0.87 | 0.00 | 91 | 1006.5 |
| 20260506023018 | 51 | 209 | 0.0 | 0.9 | 0.00 | 0.87 | 0.00 | 91 | 1006.4 |
| 20260506022157 | 51 | 203 | 0.9 | 1.7 | 0.00 | 0.87 | 0.00 | 91 | 1007.7 |
| 20260506021518 | 51 | 209 | 0.0 | 2.6 | 0.00 | 0.87 | 0.00 | 91 | 1006.5 |
| 20260506020017 | 51 | 209 | 0.0 | 4.3 | 0.00 | 0.87 | 0.00 | 91 | 1006.3 |
| 20260506014514 | 52 | 206 | 0.0 | 3.5 | 0.00 | 0.87 | 0.00 | 92 | 1006.2 |
| 20260506013017 | 52 | 206 | 0.0 | 1.7 | 0.00 | 0.87 | 0.00 | 91 | 1006.4 |
| 20260506012252 | 52 | 203 | 0.9 | 1.7 | 0.00 | 0.87 | 0.00 | 91 | 1007.8 |
| 20260506011517 | 52 | 206 | 0.0 | 2.6 | 0.00 | 0.87 | 0.00 | 91 | 1006.4 |
| 20260506010029 | 52 | 206 | 0.0 | 1.7 | 0.00 | 0.87 | 0.00 | 91 | 1006.5 |
| 20260506004509 | 52 | 222 | 0.0 | 1.7 | 0.00 | 0.87 | 0.00 | 91 | 1006.6 |
| 20260506003009 | 52 | 222 | 0.9 | 2.6 | 0.00 | 0.87 | 0.00 | 91 | 1006.5 |
| 20260506002217 | 53 | 0.0 | 0.9 | 0.00 | 0.87 | 0.00 | 91 | 1007.9 | |
| 20260506001507 | 52 | 236 | 0.0 | 2.6 | 0.00 | 0.87 | 0.00 | 91 | 1006.6 |
| 20260506000005 | 53 | 236 | 0.0 | 1.7 | 0.00 | 0.87 | 0.00 | 91 | 1006.7 |
| 20260505234503 | 53 | 236 | 0.0 | 0.9 | 0.00 | 0.87 | 0.00 | 91 | 1006.8 |
| 20260505233002 | 54 | 236 | 0.0 | 3.5 | 0.00 | 0.87 | 0.00 | 91 | 1007.0 |
| 20260505231858 | 54 | 0.0 | 0.0 | 0.00 | 0.87 | 0.00 | 91 | 1008.2 | |
| 20260505231854 | 54 | 0.0 | 0.9 | 0.00 | 0.87 | 0.00 | 91 | 1008.3 | |
| 20260505231600 | 54 | 236 | 0.0 | 1.7 | 0.00 | 0.87 | 0.00 | 91 | 1006.9 |
| 20260505230100 | 54 | 236 | 0.0 | 1.7 | 0.00 | 0.87 | 0.00 | 91 | 1006.9 |
| 20260505224558 | 54 | 236 | 0.9 | 3.5 | 0.00 | 0.87 | 0.00 | 91 | 1007.0 |
| 20260505223057 | 54 | 265 | 0.0 | 1.7 | 0.00 | 0.87 | 0.00 | 91 | 1006.9 |
| 20260505222153 | 54 | 315 | 0.9 | 1.7 | 0.00 | 0.87 | 0.00 | 90 | 1008.0 |
| 20260505221556 | 54 | 313 | 0.9 | 2.6 | 0.00 | 0.87 | 0.00 | 90 | 1006.9 |
| 20260505220053 | 54 | 323 | 0.0 | 0.9 | 0.00 | 0.87 | 0.00 | 90 | 1006.7 |
| 20260505214609 | 54 | 323 | 0.0 | 0.0 | 0.00 | 0.87 | 0.87 | 89 | 1006.5 |
| 20260505213050 | 54 | 323 | 0.9 | 1.7 | 0.00 | 0.87 | 0.87 | 90 | 1006.7 |
| 20260505212125 | 55 | 0.0 | 0.9 | 0.00 | 0.87 | 0.87 | 89 | 1007.9 | |
| 20260505211549 | 55 | 327 | 0.0 | 0.9 | 0.00 | 0.87 | 0.87 | 89 | 1006.7 |
| 20260505210048 | 55 | 327 | 0.0 | 0.9 | 0.00 | 0.87 | 0.87 | 89 | 1006.9 |
| 20260505204547 | 55 | 327 | 0.0 | 0.9 | 0.00 | 0.87 | 0.87 | 89 | 1006.8 |
| 20260505203048 | 55 | 332 | 0.0 | 1.7 | 0.00 | 0.87 | 0.87 | 89 | 1006.7 |
| 20260505202152 | 56 | 0.0 | 0.0 | 0.00 | 0.87 | 0.87 | 89 | 1007.4 | |
| 20260505201552 | 55 | 22 | 0.0 | 0.0 | 0.00 | 0.87 | 0.87 | 89 | 1006.3 |
| 20260505200045 | 55 | 22 | 0.0 | 0.0 | 0.00 | 0.87 | 0.87 | 88 | 1006.2 |
| 20260505194545 | 55 | 22 | 0.0 | 0.0 | 0.01 | 0.87 | 0.87 | 89 | 1006.0 |
| 20260505193044 | 56 | 22 | 0.0 | 0.0 | 0.01 | 0.87 | 0.87 | 89 | 1005.7 |
| 20260505192016 | 56 | 0.0 | 0.0 | 0.01 | 0.87 | 0.87 | 88 | 1006.5 | |
| 20260505191550 | 56 | 22 | 0.0 | 0.0 | 0.01 | 0.87 | 0.87 | 88 | 1005.7 |
| 20260505190041 | 56 | 22 | 0.0 | 0.9 | 0.01 | 0.87 | 0.87 | 88 | 1005.5 |
| 20260505184543 | 56 | 22 | 0.0 | 1.7 | 0.00 | 0.87 | 0.87 | 88 | 1005.2 |
| 20260505183102 | 56 | 44 | 0.0 | 2.6 | 0.04 | 0.87 | 0.87 | 88 | 1005.1 |
| 20260505182211 | 57 | 315 | 0.9 | 1.7 | 0.86 | 0.87 | 0.87 | 87 | 1005.8 |
| 20260505181539 | 57 | 64 | 0.0 | 2.6 | 0.68 | 0.87 | 0.87 | 87 | 1005.0 |
| 20260505180037 | 57 | 41 | 0.0 | 4.3 | 0.87 | 0.87 | 0.87 | 87 | 1004.9 |
| 20260505174537 | 57 | 295 | 0.0 | 7.0 | 0.87 | 0.87 | 0.87 | 85 | 1005.2 |
| 20260505173042 | 57 | 360 | 0.9 | 6.1 | 0.82 | 0.82 | 0.82 | 83 | 1006.0 |
| 20260505172145 | 63 | 225 | 3.5 | 5.2 | 0.00 | 0.00 | 0.00 | 73 | 1006.7 |
| 20260505171543 | 61 | 212 | 4.3 | 16.5 | 0.13 | 0.13 | 0.13 | 76 | 1006.0 |
| 20260505170031 | 66 | 269 | 4.3 | 13.9 | 0.00 | 0.00 | 0.00 | 66 | 1004.8 |
| 20260505164530 | 69 | 319 | 0.0 | 4.3 | 0.00 | 0.00 | 0.00 | 63 | 1003.2 |
| 20260505163029 | 70 | 51 | 0.9 | 4.3 | 0.00 | 0.00 | 0.00 | 62 | 1003.2 |
| 20260505162117 | 72 | 23 | 2.6 | 4.3 | 0.00 | 0.00 | 0.00 | 58 | 1004.7 |
| 20260505161529 | 71 | 319 | 1.7 | 5.2 | 0.00 | 0.00 | 0.00 | 58 | 1003.3 |
| 20260505153027 | 74 | 282 | 2.6 | 7.8 | 0.00 | 0.00 | 0.00 | 54 | 1003.2 |
| 20260505152047 | 74 | 68 | 3.5 | 6.1 | 0.00 | 0.00 | 0.00 | 53 | 1004.9 |
| 20260505151531 | 74 | 317 | 1.7 | 7.0 | 0.00 | 0.00 | 0.00 | 55 | 1003.4 |
| 20260505124514 | 78 | 194 | 0.0 | 2.6 | 0.00 | 0.00 | 0.00 | 41 | 1004.6 |
| 20260505123012 | 79 | 265 | 0.9 | 6.1 | 0.00 | 0.00 | 0.00 | 43 | 1004.7 |
| 20260505122155 | 77 | 338 | 0.9 | 1.7 | 0.00 | 0.00 | 0.00 | 47 | 1006.6 |
| 20260505121509 | 77 | 70 | 1.7 | 4.3 | 0.00 | 0.00 | 0.00 | 45 | 1004.9 |
| 20260505120021 | 77 | 123 | 1.7 | 3.5 | 0.00 | 0.00 | 0.00 | 39 | 1005.1 |
| 20260505114504 | 77 | 292 | 1.7 | 6.1 | 0.00 | 0.00 | 0.00 | 45 | 1005.3 |
| 20260505113002 | 76 | 213 | 0.9 | 3.5 | 0.00 | 0.00 | 0.00 | 44 | 1005.4 |
| 20260505112021 | 76 | 180 | 1.7 | 1.7 | 0.00 | 0.00 | 0.00 | 44 | 1007.4 |
| 20260505111558 | 75 | 173 | 0.9 | 2.6 | 0.00 | 0.00 | 0.00 | 43 | 1005.6 |
| 20260505101750 | 74 | 225 | 2.6 | 3.5 | 0.00 | 0.00 | 0.00 | 55 | 1007.9 |
| 20260505101552 | 73 | 215 | 1.7 | 5.2 | 0.00 | 0.00 | 0.00 | 54 | 1006.2 |
| 20260505100049 | 73 | 227 | 1.7 | 5.2 | 0.00 | 0.00 | 0.00 | 53 | 1006.4 |
| 20260505094546 | 73 | 229 | 1.7 | 4.3 | 0.00 | 0.00 | 0.00 | 54 | 1006.3 |
| 20260505093045 | 73 | 244 | 0.9 | 4.3 | 0.00 | 0.00 | 0.00 | 58 | 1006.5 |
| 20260505092143 | 72 | 0.0 | 0.9 | 0.00 | 0.00 | 0.00 | 58 | 1008.4 | |
| 20260505091543 | 72 | 41 | 0.0 | 2.6 | 0.00 | 0.00 | 0.00 | 59 | 1006.7 |
| 20260505090045 | 72 | 251 | 1.7 | 3.5 | 0.00 | 0.00 | 0.00 | 60 | 1006.8 |
| 20260505084537 | 71 | 323 | 0.9 | 3.5 | 0.00 | 0.00 | 0.00 | 60 | 1007.0 |
| 20260505083033 | 71 | 334 | 0.9 | 6.1 | 0.00 | 0.00 | 0.00 | 60 | 1007.0 |
| 20260505082016 | 70 | 0.0 | 0.9 | 0.00 | 0.00 | 0.00 | 60 | 1008.7 | |
| 20260505081538 | 70 | 9 | 0.0 | 1.7 | 0.00 | 0.00 | 0.00 | 62 | 1007.1 |
| 20260505080036 | 69 | 53 | 0.9 | 2.6 | 0.00 | 0.00 | 0.00 | 62 | 1007.3 |
| 20260505074525 | 69 | 25 | 0.0 | 1.7 | 0.00 | 0.00 | 0.00 | 64 | 1007.5 |
| 20260505073037 | 67 | 300 | 0.0 | 3.5 | 0.00 | 0.00 | 0.00 | 66 | 1007.6 |
| 20260505071947 | 66 | 0 | 0.9 | 2.6 | 0.00 | 0.00 | 0.00 | 67 | 1009.2 |
| 20260505071520 | 66 | 333 | 0.9 | 3.5 | 0.00 | 0.00 | 0.00 | 65 | 1007.6 |
| 20260505070015 | 64 | 279 | 0.9 | 3.5 | 0.00 | 0.00 | 0.00 | 68 | 1007.8 |
| 20260505064531 | 64 | 281 | 0.0 | 2.6 | 0.00 | 0.00 | 0.00 | 69 | 1007.8 |
| 20260505063012 | 64 | 57 | 0.0 | 1.7 | 0.00 | 0.00 | 0.00 | 69 | 1007.9 |
| 20260505061931 | 63 | 0 | 0.9 | 1.7 | 0.00 | 0.00 | 0.00 | 71 | 1009.6 |
| 20260505061524 | 63 | 328 | 0.0 | 1.7 | 0.00 | 0.00 | 0.00 | 71 | 1008.0 |
| 20260505060007 | 62 | 53 | 0.0 | 3.5 | 0.00 | 0.00 | 0.00 | 72 | 1008.1 |
| 20260505054506 | 60 | 64 | 0.0 | 2.6 | 0.00 | 0.00 | 0.00 | 75 | 1008.1 |
| 20260505053005 | 58 | 63 | 0.9 | 2.6 | 0.00 | 0.00 | 0.00 | 77 | 1008.1 |
| 20260505052023 | 58 | 68 | 0.9 | 1.7 | 0.00 | 0.00 | 0.00 | 78 | 1009.4 |
| 20260505051506 | 57 | 30 | 0.9 | 3.5 | 0.00 | 0.00 | 0.00 | 78 | 1008.1 |
| 20260505041601 | 57 | 110 | 0.0 | 0.9 | 0.00 | 0.00 | 0.00 | 76 | 1008.3 |
| 20260505040058 | 57 | 36 | 0.0 | 1.7 | 0.00 | 0.00 | 0.00 | 76 | 1008.3 |
| 20260505034557 | 58 | 34 | 1.7 | 3.5 | 0.00 | 0.00 | 0.00 | 75 | 1008.1 |